TimeEST,TemperatureF,Dew PointF,Humidity,Sea Level PressureIn,VisibilityMPH,Wind Direction,Wind SpeedMPH,Gust SpeedMPH,PrecipitationIn,Events,Conditions,WindDirDegrees,DateUTC
12:53 AM,66.0,64.0,93,30.04,9.0,Calm,Calm,-,N/A,,Scattered Clouds,0,2012-12-10 05:53:00
1:53 AM,66.9,64.9,93,30.03,9.0,Calm,Calm,-,N/A,,Overcast,0,2012-12-10 06:53:00
2:53 AM,64.0,63.0,96,30.01,1.8,Calm,Calm,-,N/A,,Clear,0,2012-12-10 07:53:00
3:19 AM,62.6,62.6,100,30.00,0.5,Calm,Calm,-,N/A,Fog,Fog,0,2012-12-10 08:19:00
3:53 AM,63.0,63.0,100,30.00,0.8,Calm,Calm,-,N/A,,Clear,0,2012-12-10 08:53:00
4:51 AM,62.6,62.6,100,29.99,0.5,Calm,Calm,-,N/A,Fog,Fog,0,2012-12-10 09:51:00
4:53 AM,63.0,62.1,97,29.99,0.5,Calm,Calm,-,N/A,Fog,Fog,0,2012-12-10 09:53:00
5:04 AM,62.6,62.6,100,29.99,0.2,Calm,Calm,-,N/A,Fog,Fog,0,2012-12-10 10:04:00
5:49 AM,62.6,60.8,94,29.99,0.5,Calm,Calm,-,N/A,Fog,Fog,0,2012-12-10 10:49:00
5:53 AM,62.1,62.1,100,30.00,0.5,Calm,Calm,-,N/A,Fog,Fog,0,2012-12-10 10:53:00
6:39 AM,62.6,60.8,94,30.00,1.0,Calm,Calm,-,N/A,,Clear,0,2012-12-10 11:39:00
6:46 AM,62.6,62.6,100,30.00,4.0,East,3.5,-,N/A,,Clear,100,2012-12-10 11:46:00
7:53 AM,66.0,64.9,96,30.02,4.0,Calm,Calm,-,0.01,,Clear,0,2012-12-10 12:53:00
8:26 AM,68.0,66.2,94,30.02,10.0,ESE,3.5,-,N/A,,Scattered Clouds,120,2012-12-10 13:26:00
8:38 AM,71.6,68.0,88,30.02,10.0,SSE,5.8,-,N/A,,Mostly Cloudy,150,2012-12-10 13:38:00
8:50 AM,71.6,69.8,94,30.02,7.0,SSE,6.9,-,N/A,,Overcast,160,2012-12-10 13:50:00
8:53 AM,71.1,68.0,90,30.02,7.0,SSE,8.1,-,N/A,,Overcast,160,2012-12-10 13:53:00
9:53 AM,77.0,72.0,84,30.02,10.0,SSE,9.2,-,N/A,,Scattered Clouds,160,2012-12-10 14:53:00
10:53 AM,84.0,72.0,67,29.99,10.0,SSE,17.3,-,N/A,,Clear,160,2012-12-10 15:53:00
11:53 AM,86.0,71.1,61,29.97,10.0,South,13.8,-,N/A,,Clear,190,2012-12-10 16:53:00
12:53 PM,84.0,71.1,65,29.96,10.0,SSW,13.8,-,N/A,,Overcast,200,2012-12-10 17:53:00
1:53 PM,82.9,71.1,67,29.94,10.0,South,12.7,-,N/A,,Overcast,190,2012-12-10 18:53:00
2:53 PM,82.9,73.0,72,29.91,10.0,South,18.4,25.3,N/A,,Scattered Clouds,180,2012-12-10 19:53:00
3:31 PM,84.2,73.4,70,29.90,10.0,SSW,16.1,-,N/A,,Mostly Cloudy,200,2012-12-10 20:31:00
3:53 PM,82.0,72.0,71,29.92,10.0,SSW,12.7,21.9,N/A,,Mostly Cloudy,200,2012-12-10 20:53:00
4:14 PM,80.6,71.6,74,29.92,10.0,SSW,16.1,23.0,N/A,,Overcast,200,2012-12-10 21:14:00
4:53 PM,80.1,73.0,79,29.92,10.0,South,15.0,-,N/A,,Overcast,190,2012-12-10 21:53:00
5:53 PM,78.1,73.0,84,29.91,10.0,South,10.4,-,N/A,,Mostly Cloudy,180,2012-12-10 22:53:00
6:53 PM,77.0,73.0,88,29.94,10.0,South,12.7,-,N/A,,Scattered Clouds,190,2012-12-10 23:53:00
7:53 PM,77.0,73.0,88,29.95,10.0,South,12.7,-,N/A,,Clear,190,2012-12-11 00:53:00
8:53 PM,75.9,73.0,91,29.97,10.0,SSW,9.2,-,N/A,,Mostly Cloudy,200,2012-12-11 01:53:00
9:53 PM,77.0,73.0,88,29.96,10.0,South,9.2,-,N/A,,Overcast,190,2012-12-11 02:53:00
10:53 PM,75.9,73.0,91,29.96,10.0,South,11.5,-,N/A,,Mostly Cloudy,180,2012-12-11 03:53:00
11:53 PM,75.9,73.0,91,29.96,7.0,SW,8.1,-,0.10,Rain,Light Rain,220,2012-12-11 04:53:00